STARLINK-11378, 62020

Orbit data source: Space-Track

STARLINK-11378, 62020 is a payload satellite owned by SpaceX/Seattle (US) in LEO that was launched on Mon, 18 Nov 2024 UTC via an FALCON 9 launch vehicle from the Air Force Western Test Range (AFWTR). Payload-class satellites include a variety of spacecraft equipped with specific instruments for various scientific and technological missions. These include communications satellites like Starlink; space stations such as the ISS; scientific satellites like the Hubble; Earth observation satellites from companies like Planet Labs, Umbra, and HawkEye 360; GPS; miniature CubeSats for education and research; and military/defense satellites.

Loading next visibility...
Identifier
62020, 2024-213N
Orbit
LEO
Last TLE update
13 hours ago
Origin
Manufacturer
SpaceX/Seattle
Mission
Operational Commercial Communications
Bus & Motor
STARLINK V2M, Unknown motor
Mass
730 kg wet, ~700 kg dry
Launch date (UTC)
2024-11-18 (8 months ago)
Launch vehicle
FALCON 9
Launch site
Air Force Western Test Range (AFWTR)
Object type
Payload
Rocket body
Debris
Shape & HBR
Box + 2 Pan, 29 m
Radar Cross Section
36.964 m², Large (>1 m²)

Expand to show TLE details & history

TLE from 13 hours ago
0 STARLINK-11378
1 62020U 24213N   25187.37742090  .00136706  00000-0  11121-2 0  9998
2 62020  53.1557 175.1528 0001713 121.5388 238.5797 15.69766827 36239
Epoch: 2025-07-06T09:03Z
TLE epoch observation values (Epoch: 2025-07-06T09:03:29.165Z)
Latitude
-0.00006°
Longitude
114.67925°
Altitude
361.081 km
Speed
7.694 km/s
True Right ascension
11h 40m 36s
True Declination
0° 00' 00"
Sunlit
Object was in daylight at epoch
Visualization orbit readout
Latitude
-53.28749°
Longitude
24.24469°
Altitude
378.606 km
Speed
7.682 km/s
Apparent Right ascension
01h 32m 32s
Apparent Declination
-60° 47' 26"
Sunlit
Object is in daylight
Visualization observer readout
Local Sidereal Time
10:26:06
Azimuth
217.973° SW
Elevation
-54.806°
Doppler factor
1
Orbital elements
Apogee altitude
360.98 km
Perigee altitude
358.671 km
Semi-major axis
6,737.963 km
Eccentricity
0.00017
Inclination
53.1557°
RAAN
175.1528°
Arg. of periapsis
121.5388°
True anomaly
Unknown
Mean anomaly
238.5797°
Eccentric anomaly
Unknown
Mean motion
3.92419 °/min
Orbital period
91.74 mins
BSTAR
0.0011121
Loading maneuver chart data...
Loading SW <> Apogee altitude chart data...
Loading historical data...
Loading historical data...
Loading historical data...
Loading historical data...
Loading historical data...
Loading historical data...
Loading historical data...

STARLINK-11378 Visibility forecast

Observer location: undefined°, undefined°

Span
Click to sort rows by Start time (UTC) header in descending order
Start Az.
Max El. time (UTC)
Max El. Az.
Max El.
End time (UTC)
End Az.
5 mins2025-07-07 02:02:58.290Z233.234° WSW2025-07-07 02:05:58.290Z26.469° NE42.075°2025-07-07 02:07:58.290Z47.007° ENE
4 mins2025-07-07 08:28:58.290Z326.651° NNW2025-07-07 08:29:58.290Z3.583° NNE39.574°2025-07-07 08:32:58.290Z119.161° SE
|